Location: Nairn
(57.5833°N, 3.8667°W)
Time: 13:14:40
(UTC+00:00)

Transit 2A - Visible Passes

Search period start: 04 October 2022 00:00
Search period end: 14 October 2022 00:00
Orbit: 601 x 956 km, 66.7° (Epoch: 03 October)

Date Brightness Start Highest point End Pass type
(mag) Time Alt. Az. Time Alt. Az. Time Alt. Az.
04 Oct 7.6 01:53:18 26° NNE 01:53:18 26° NNE 01:55:50 10° NE visible
04 Oct 7.4 03:33:47 18° NW 03:35:56 26° N 03:39:48 10° ENE visible
04 Oct 6.8 05:15:48 10° NW 05:20:03 41° NNE 05:24:35 10° E visible
05 Oct 8.0 01:19:51 20° NNE 01:19:51 20° NNE 01:21:24 10° NE visible
05 Oct 7.3 03:00:19 24° NNW 03:01:19 26° N 03:05:09 10° NE visible
05 Oct 7.0 04:41:23 10° NW 04:45:31 36° NNE 04:49:54 10° E visible
06 Oct 8.4 00:46:24 13° NE 00:46:24 13° NE 00:47:00 10° NE visible
06 Oct 7.4 02:26:52 26° N 02:26:52 26° N 02:30:33 10° NE visible
06 Oct 7.2 04:07:20 12° NW 04:10:58 32° NNE 04:15:11 10° E visible
06 Oct 5.9 05:50:06 10° NW 05:54:39 79° NE 05:59:35 10° SE visible
07 Oct 7.7 01:53:27 24° NNE 01:53:27 24° NNE 01:56:00 10° NE visible
07 Oct 7.3 03:33:55 18° NNW 03:36:23 29° NNE 03:40:28 10° ENE visible
07 Oct 6.1 05:15:43 10° NW 05:20:13 63° NE 05:25:05 10° ESE visible
08 Oct 8.2 01:20:03 18° NNE 01:20:03 18° NNE 01:21:30 10° NE visible
08 Oct 7.4 03:00:32 24° NNW 03:01:46 27° N 03:05:45 10° ENE visible
08 Oct 6.5 04:41:21 10° NW 04:45:45 51° NNE 04:50:31 10° ESE visible
09 Oct 8.6 00:46:41 12° NE 00:46:41 12° NE 00:47:02 10° NE visible
09 Oct 7.5 02:27:10 26° N 02:27:10 26° N 02:31:04 10° ENE visible
09 Oct 6.8 04:07:38 14° NW 04:11:15 43° NNE 04:15:52 10° E visible
09 Oct 5.9 05:50:03 10° NW 05:54:35 60° SW 05:59:31 10° SSE visible
10 Oct 7.9 01:53:51 22° NNE 01:53:51 22° NNE 01:56:24 10° ENE visible
10 Oct 7.0 03:34:20 21° NNW 03:36:44 37° NNE 03:41:12 10° E visible
10 Oct 5.7 05:15:39 10° NW 05:20:14 79° SW 05:25:14 10° SE visible
11 Oct 8.4 01:20:35 16° NE 01:20:35 16° NE 01:21:48 10° NE visible
11 Oct 7.2 03:01:05 29° N 03:02:10 32° NNE 03:06:28 10° E visible
11 Oct 5.8 04:41:34 12° NW 04:45:50 82° NE 04:50:49 10° SE visible
12 Oct 7.4 02:27:54 29° NNE 02:27:54 29° NNE 02:31:45 10° ENE visible
12 Oct 6.0 04:08:23 21° NW 04:11:24 66° NE 04:16:21 10° ESE visible
12 Oct 6.5 05:50:10 10° WNW 05:54:22 33° WSW 05:58:53 10° S visible
13 Oct 8.0 01:54:49 21° NE 01:54:49 21° NE 01:57:01 10° ENE visible
13 Oct 6.4 03:35:19 35° NNW 03:36:56 53° NE 03:41:47 10° ESE visible
13 Oct 6.1 05:15:48 11° NW 05:20:05 44° SW 05:24:53 10° SSE visible
